This demonstration page uses our WeatherBlox Daily Observations layout. Learn more.

Left ArrowRight Arrow

41.55636, -103.73856

Hourly Observations for December 31, 2021

Temp ( °F °C ) Dew Point ( °F °C ) Humidity (%) Winds ( mph kmh ) Pressure ( in mb ) Visibility ( mi km ) Precip ( " mm )
12:58 am 00:58 Partly Cloudy 31 -0.8 6 -14.5 35 35 SSW 13 20 29.47 998 10 16 0.00 0.00
1:58 am 01:58 Mostly Cloudy 30 -1.2 7 -13.9 38 38 SW 17 28 29.45 997 10 16 0.00 0.00
2:58 am 02:58 Mostly Cloudy with Light Rain/Snow 35 1.8 8 -13.6 31 31 WNW 13 20 29.50 999 10 16 0.00 0.00
3:58 am 03:58 Cloudy with Light Rain/Snow 33 0.3 24 -4.4 71 71 WSW 7 11 29.50 999 10 16 0.00 0.00
4:58 am 04:58 Cloudy 33 0.4 23 -4.8 68 68 W 9 15 29.51 999 10 16 0.00 0.00
5:58 am 05:58 Cloudy 33 0.7 21 -6.3 60 60 NW 14 22 29.53 1000 10 16 0.00 0.00
6:58 am 06:58 Cloudy 19 -7 13 -10.3 78 78 NE 14 22 29.64 1004 10 16 0.00 0.00
7:58 am 07:58 Mostly Cloudy 17 -8.6 10 -12 77 77 NE 13 20 29.69 1005 10 16 0.00 0.00
8:58 am 08:58 Mostly Cloudy 16 -9.1 9 -12.7 75 75 ENE 12 19 29.72 1006 10 16 0.00 0.00
9:58 am 09:58 Cloudy 15 -9.3 8 -13.4 72 72 NNE 10 17 29.77 1008 10 16 0.00 0.00
10:58 am 10:58 Cloudy 15 -9.2 8 -13.6 71 71 NE 10 17 29.76 1008 10 16 0.00 0.00
11:58 am 11:58 Cloudy 16 -9.1 7 -13.8 69 69 NE 14 22 29.75 1007 10 16 0.00 0.00
12:58 pm 12:58 Cloudy 16 -9 7 -13.8 68 68 NE 10 17 29.77 1008 10 16 0.00 0.00
1:58 pm 13:58 Cloudy with Light Snow 14 -10.1 6 -14.5 70 70 ENE 15 24 29.77 1008 10 16 0.00 0.00
2:58 pm 14:58 Cloudy with Light Snow Showers 12 -11.3 4 -15.7 70 70 ENE 14 22 29.78 1009 10 16 0.00 0.00
3:58 pm 15:58 Cloudy with Light Snow Showers 11 -11.9 3 -16 72 72 ENE 9 15 29.81 1010 10 16 0.00 0.00
4:58 pm 16:58 Cloudy with Light Snow Showers 10 -12.4 3 -16 75 75 ENE 9 15 29.83 1010 10 16 0.00 0.00
5:58 pm 17:58 Cloudy with Light Snow 8 -13.1 4 -15.4 83 83 ENE 12 19 29.89 1012 5 8 0.00 0.00
6:58 pm 18:58 Cloudy with Light Snow 7 -14.1 3 -16.2 84 84 ENE 10 17 29.97 1015 2 3 0.00 0.00
7:58 pm 19:58 Cloudy with Light Snow 5 -15.1 1 -17.3 83 83 E 12 19 30.00 1016 3 4 0.00 0.00
8:58 pm 20:58 Cloudy with Light Snow 3 -16 -1 -18.3 83 83 E 12 19 30.03 1017 4 6 0.00 0.00
9:58 pm 21:58 Cloudy with Light Snow 2 -16.5 -2 -18.7 83 83 ENE 8 13 30.05 1018 6 10 0.00 0.00
10:58 pm 22:58 Cloudy with Light Snow 2 -16.8 -2 -19.1 83 83 ENE 8 13 30.06 1018 8 13 0.00 0.00
11:58 pm 23:58 Cloudy with Light Snow 1 -17.3 -3 -19.7 82 82 ENE 9 15 30.07 1018 2 4 0.00 0.00

Powered by AerisWeather